Location: Antioch Baptist Church
(32.6696°N, 85.7327°W)
Time: 21:20:13
(UTC+00:00)

Cosmos 2322 - Pass Details

Date: 14 July 2020
Orbit: 841 x 854 km, 71.0° (Epoch: 13 August)

Event Time Altitude Azimuth Distance (km) Brightness Sun altitude
Rises 01:15:20 0° 208° (SSW) 3,406 6.8 -5.1°
Reaches altitude 10° 01:17:49 10° 211° (SSW) 2,474 6.2 -5.6°
Maximum altitude 01:23:26 62° 292° (WNW) 957 4.4 -6.6°
Drops below altitude 10° 01:29:05 10° 13° (NNE) 2,486 6.4 -7.6°
Sets 01:31:35 0° 17° (NNE) 3,424 7.1 -8.1°
